[[{"header":{"parameterUnit":"m.s-1","parameterCategory":1,"la1":30.2991,"la2":30.254,"lo1":-89.0895,"lo2":-89.0444,"dy":0.0017,"dx":0.0017,"nx":28,"ny":28,"refTime":"2026-01-01T03:00:00:Z","depth":0,"parameterNumber":2,"parameterNumberName":"U-component_of_WINDS"},"data":[0,0,0,0,0,0,0,0,0,0,0,0,0,0,0,0,0,0,0,0,0,0,0,0,0,0,0,0,0,0,0,0,0,0,0,0,0,0,0,0,0,0,0,0,0,0,0,0,0,0,0,0,0,0,0,0,0,0,2.2809,2.2811,0,2.3018,2.302,2.3022,2.3069,2.3068,2.3066,2.3065,2.3282,2.3288,2.3296,0,0,0,0,0,0,0,0,0,0,0,0,0,2.2455,2.2461,2.2809,2.2811,2.2814,2.3017,2.302,2.3023,2.3069,2.3067,2.3066,2.3064,2.3279,2.3288,2.3296,0,0,0,0,0,0,0,0,0,0,0,0,0,2.263,2.2463,2.2808,2.2862,2.2868,2.3017,2.302,2.3024,2.307,2.3067,2.3065,2.3063,2.3276,2.3287,2.3297,2.3408,0,0,2.333,2.3335,0,0,0,0,0,0,0,0,2.262,2.2643,2.2851,2.2858,2.2866,2.3015,2.2975,2.3153,2.307,2.2993,2.3065,2.3062,2.3195,2.3212,2.3256,2.3418,2.3428,2.3331,2.3338,2.3342,2.3345,0,0,0,0,0,0,0,2.2608,2.2635,2.2892,2.2854,2.2863,2.2876,2.2899,2.3009,2.3104,2.3,2.3004,2.3028,2.3199,2.3246,2.3262,2.3431,2.3331,2.334,2.3347,2.3351,2.3696,2.3698,0,0,0,0,0,0,2.2586,2.2624,2.2885,2.2898,2.2735,2.2885,2.291,2.2969,2.3103,2.3121,2.3029,2.3029,2.3229,2.3249,2.3269,2.3408,2.3342,2.3352,2.3358,2.3693,2.3696,2.3699,0,0,0,0,0,0,2.2578,2.2609,2.2876,2.2762,2.2797,2.2893,2.296,2.2975,2.3022,2.3125,2.3143,2.306,2.3228,2.3254,2.3373,2.3416,2.3357,2.3367,2.369,2.3694,2.3698,2.3685,0,0,0,0,0,0,2.2568,2.2606,2.2648,2.2763,2.2803,2.2975,2.2962,2.298,2.304,2.3042,2.3159,2.3176,2.3228,2.3357,2.3384,2.343,2.3375,2.3686,2.3692,2.3697,2.3682,2.3689,2.3694,0,0,0,0,0,2.2555,2.2636,2.265,2.2681,2.2857,2.2978,2.3001,2.3058,2.3043,2.3087,2.3154,2.3172,2.3408,2.3369,2.34,2.3449,2.3684,2.369,2.3696,2.368,2.3687,2.3694,0,0,0,0,0,0,2.2525,2.2652,2.2668,2.2789,2.2872,2.2985,2.3042,2.3064,2.3154,2.3152,2.3221,2.3247,2.3361,2.3418,2.3372,2.3564,2.3545,2.3558,2.3522,2.3531,2.3536,2.3519,2.3384,0,0,0,0,0,2.2532,2.2618,2.2726,2.2822,2.2863,2.2945,2.3,2.3037,2.3126,2.3161,2.3237,2.3324,2.3417,2.3477,2.3569,2.3692,2.3718,2.3741,2.3747,2.3751,2.3761,2.383,2.3841,2.3719,2.3719,2.3719,0,0,2.2548,2.2628,2.2678,2.2818,2.2886,2.2975,2.2974,2.3068,2.3134,2.3176,2.3292,2.3351,2.3453,2.3574,2.3631,2.3624,2.3801,2.3759,2.3761,2.3769,2.3837,2.3849,2.3859,2.3723,2.3723,2.3722,0,0,2.2621,2.2691,2.2779,2.2848,2.2952,2.3006,2.3027,2.3138,2.3178,2.3296,2.3329,2.3411,2.3571,2.3641,2.3698,2.3801,2.3822,2.383,2.3859,2.3925,2.3935,2.3944,2.398,2.3992,2.3839,2.3839,2.3839,0,2.2628,2.2761,2.2821,2.2914,2.2974,2.3016,2.3106,2.317,2.3299,2.3341,2.3332,2.3533,2.3605,2.3743,2.3768,2.3813,2.384,2.3815,2.3928,2.3938,2.3947,2.3982,2.3995,2.3839,2.3839,2.3839,2.3839,0,2.2764,2.2857,2.2915,2.3038,2.3105,2.3196,2.3271,2.3332,2.3365,2.342,2.3541,2.3628,2.3739,2.3775,2.3807,2.3918,2.3911,2.3914,2.3897,2.3958,2.3992,2.4006,2.384,2.384,2.384,2.3839,0,0,2.2822,2.2978,2.2998,2.3054,2.3173,2.3246,2.334,2.3447,2.3498,2.3587,2.3667,2.3802,2.3806,2.3871,2.3912,2.3971,2.4046,2.3968,2.3971,2.3978,2.4173,2.4168,2.4183,2.4061,2.4064,2.4067,2.4164,0,2.2909,2.3075,2.3133,2.3271,2.3357,2.3399,2.3481,2.3563,2.3619,2.3701,2.3764,2.3858,2.3857,2.3896,2.3956,2.4024,2.4086,2.4018,2.4137,2.414,2.4108,2.4201,2.4196,2.4284,2.4178,2.4181,2.4182,0,2.3032,2.3121,2.3267,2.3376,2.3414,2.3486,2.3589,2.3668,2.3763,2.3799,2.3872,2.391,2.401,2.3988,2.4128,2.408,2.4133,2.4174,2.4179,2.4191,2.4163,2.4214,2.4313,2.4326,2.4204,2.4202,2.4201,0,2.3058,2.3215,2.3322,2.337,2.3499,2.3549,2.3605,2.3698,2.3759,2.3851,2.3891,2.3993,2.4049,2.4128,2.4193,2.4171,2.4327,2.431,2.436,2.4358,2.4389,2.4386,2.4497,2.4426,2.4426,2.4425,2.4425,0,2.3148,2.3235,2.3336,2.3401,2.3501,2.3568,2.3666,2.3725,2.3808,2.3887,2.3931,2.4005,2.4087,2.4172,2.4224,2.4331,2.4357,2.4389,2.4402,2.4384,2.438,2.4418,2.4413,2.4429,2.4428,2.4428,2.4427,0,2.3192,2.3263,2.3383,2.3496,2.3527,2.3595,2.3693,2.3759,2.3818,2.3918,2.3945,2.4037,2.4139,2.4212,2.4344,2.4379,2.4495,2.4508,2.4462,2.4468,2.4513,2.4507,2.4651,2.4673,2.4588,2.4589,2.459,0,2.3243,2.3311,2.3432,2.3488,2.3544,2.3634,2.3696,2.3766,2.3829,2.3944,2.3996,2.4102,2.4189,2.4351,2.443,2.4532,2.4547,2.459,2.4562,2.4543,2.4546,2.454,2.4547,2.4594,2.4594,2.4595,2.4595,0,2.3327,2.3359,2.3447,2.3547,2.362,2.3703,2.3787,2.383,2.3915,2.3985,2.4089,2.4157,2.4292,2.4396,2.4506,2.4566,2.4595,2.4604,2.462,2.4602,2.4572,2.4588,2.4471,2.4599,2.4599,2.4599,2.4598,2.4598,2.3376,2.3438,2.3533,2.3629,2.37,2.3777,2.3845,2.3912,2.4,2.4114,2.4151,2.4259,2.4355,2.4505,2.4566,2.4653,2.4651,2.4675,2.4681,2.4686,2.4684,2.456,2.4674,2.4674,2.4674,2.4674,2.4674,0,2.346,2.3523,2.3612,2.3727,2.3803,2.3824,2.3918,2.3981,2.4075,2.4161,2.4247,2.4367,2.4469,2.4557,2.4663,2.4715,2.4731,2.4741,2.4736,2.475,2.4681,2.4655,2.4726,2.4726,2.4726,2.4726,2.4726,2.4726,2.3513,2.3619,2.3663,2.3806,2.3869,2.3975,2.4027,2.4099,2.4168,2.43,2.4384,2.4441,2.4528,2.4641,2.4736,2.4759,2.4795,2.4801,2.4827,2.4761,2.4755,2.4749,2.4725,2.4809,2.4809,2.4889,2.489,2.489]},{"header":{"parameterUnit":"m.s-1","parameterCategory":1,"la1":30.2991,"la2":30.254,"lo1":-89.0895,"lo2":-89.0444,"dy":0.0017,"dx":0.0017,"nx":28,"ny":28,"refTime":"2026-01-01T03:00:00:Z","depth":0,"parameterNumber":3,"parameterNumberName":"V-component_of_WINDS"},"data":[0,0,0,0,0,0,0,0,0,0,0,0,0,0,0,0,0,0,0,0,0,0,0,0,0,0,0,0,0,0,0,0,0,0,0,0,0,0,0,0,0,0,0,0,0,0,0,0,0,0,0,0,0,0,0,0,0,0,2.4943,2.4945,0,2.5082,2.5083,2.5085,2.512,2.5119,2.5118,2.5117,2.5254,2.5258,2.5263,0,0,0,0,0,0,0,0,0,0,0,0,0,2.4705,2.4709,2.4943,2.4945,2.4947,2.5081,2.5083,2.5085,2.512,2.5119,2.5118,2.5117,2.5253,2.5258,2.5263,0,0,0,0,0,0,0,0,0,0,0,0,0,2.4822,2.4711,2.4943,2.498,2.4985,2.5081,2.5083,2.5086,2.512,2.5119,2.5117,2.5116,2.5251,2.5257,2.5264,2.5331,0,0,2.5284,2.5287,0,0,0,0,0,0,0,0,2.4816,2.4831,2.4973,2.4978,2.4983,2.5082,2.505,2.5168,2.512,2.5069,2.5117,2.5115,2.5198,2.5209,2.5237,2.5338,2.5343,2.5285,2.5289,2.5292,2.5294,0,0,0,0,0,0,0,2.4808,2.4825,2.4998,2.4975,2.4981,2.4989,2.5004,2.5072,2.5138,2.5073,2.5076,2.5092,2.52,2.5231,2.5241,2.5345,2.5285,2.5291,2.5295,2.5297,2.5508,2.551,0,0,0,0,0,0,2.4794,2.4818,2.4993,2.5002,2.4895,2.4994,2.5011,2.5052,2.5138,2.515,2.5093,2.5093,2.522,2.5233,2.5246,2.5331,2.5292,2.5298,2.5302,2.5507,2.5509,2.5511,0,0,0,0,0,0,2.4788,2.4809,2.4988,2.4911,2.4934,2.5,2.5045,2.5055,2.5086,2.5153,2.5165,2.5112,2.5219,2.5236,2.531,2.5336,2.5301,2.5307,2.5505,2.5507,2.551,2.5501,0,0,0,0,0,0,2.4781,2.4807,2.4834,2.4911,2.4938,2.5051,2.5046,2.5059,2.5098,2.5099,2.5174,2.5185,2.522,2.53,2.5317,2.5344,2.5312,2.5503,2.5506,2.5509,2.5499,2.5502,2.5505,0,0,0,0,0,2.4773,2.4824,2.4835,2.4856,2.4974,2.5052,2.5068,2.5108,2.51,2.5127,2.517,2.5183,2.533,2.5307,2.5326,2.5356,2.5502,2.5505,2.5509,2.5497,2.5502,2.5505,0,0,0,0,0,0,2.4746,2.4835,2.4848,2.4927,2.4982,2.5058,2.5094,2.5111,2.5168,2.5167,2.5212,2.5229,2.53,2.5335,2.5308,2.5426,2.5416,2.5423,2.5401,2.5405,2.5408,2.5398,2.5318,0,0,0,0,0,2.475,2.4808,2.4882,2.4944,2.4971,2.5028,2.5063,2.509,2.5148,2.5171,2.522,2.5275,2.5334,2.5371,2.5429,2.5504,2.5521,2.5534,2.5537,2.554,2.5546,2.5589,2.5596,2.5522,2.5522,2.5522,0,0,2.4757,2.4813,2.4847,2.494,2.4986,2.5044,2.5047,2.5108,2.5151,2.518,2.5253,2.5291,2.5355,2.543,2.5466,2.5462,2.557,2.5544,2.5546,2.5551,2.5593,2.56,2.5606,2.5525,2.5524,2.5524,0,0,2.4801,2.4849,2.4907,2.4953,2.5023,2.5061,2.5074,2.5149,2.5175,2.525,2.5273,2.5324,2.5425,2.547,2.5506,2.5568,2.5582,2.5585,2.5602,2.5643,2.5649,2.5654,2.5677,2.5684,2.5591,2.5591,2.5591,0,2.4801,2.4891,2.4934,2.4994,2.5035,2.5065,2.5123,2.5166,2.525,2.5277,2.5272,2.54,2.5445,2.5531,2.5547,2.5575,2.5591,2.5577,2.5645,2.5651,2.5656,2.5678,2.5686,2.5591,2.5591,2.5591,2.5591,0,2.4887,2.4949,2.4987,2.507,2.5115,2.5174,2.5225,2.5265,2.5287,2.5324,2.54,2.5456,2.5526,2.5548,2.5569,2.5638,2.5633,2.5636,2.5626,2.5663,2.5684,2.5693,2.5591,2.5591,2.5591,2.5591,0,0,2.4917,2.5025,2.5038,2.5077,2.5157,2.5205,2.5265,2.5335,2.5368,2.5426,2.5477,2.5562,2.5565,2.5606,2.5633,2.5669,2.5715,2.5668,2.567,2.5675,2.5794,2.5792,2.5801,2.5725,2.5727,2.5728,2.5789,0,2.4971,2.5082,2.5122,2.5212,2.527,2.53,2.5353,2.5407,2.5443,2.5497,2.5536,2.5596,2.5596,2.5621,2.5658,2.5702,2.574,2.5698,2.5772,2.5774,2.5756,2.5812,2.5809,2.5864,2.5797,2.5799,2.58,0,2.5048,2.5109,2.5205,2.5279,2.5305,2.5351,2.542,2.547,2.5532,2.5556,2.5603,2.5628,2.5691,2.5677,2.5765,2.5735,2.5768,2.5794,2.5797,2.5806,2.5789,2.5822,2.5882,2.5891,2.5813,2.5812,2.5811,0,2.5061,2.5166,2.5238,2.527,2.5358,2.539,2.5428,2.5489,2.5529,2.5588,2.5614,2.5679,2.5714,2.5763,2.5805,2.5791,2.5888,2.5878,2.591,2.5909,2.5929,2.5927,2.5995,2.5949,2.5949,2.5949,2.5949,0,2.5117,2.5175,2.5245,2.5289,2.5355,2.5401,2.5464,2.5503,2.5558,2.5609,2.5638,2.5686,2.5737,2.5791,2.5824,2.5891,2.5907,2.5927,2.5935,2.5925,2.5923,2.5947,2.5945,2.5951,2.5951,2.595,2.595,0,2.5142,2.5192,2.5272,2.535,2.537,2.5415,2.5481,2.5524,2.5563,2.5628,2.5645,2.5705,2.577,2.5816,2.5899,2.5921,2.5994,2.6002,2.5974,2.5978,2.6007,2.6004,2.6094,2.6108,2.6052,2.6052,2.6053,0,2.5175,2.522,2.5303,2.5341,2.5379,2.5439,2.548,2.5527,2.5569,2.5644,2.5678,2.5745,2.5802,2.5904,2.5954,2.6018,2.6027,2.6055,2.6037,2.6025,2.6028,2.6025,2.603,2.6057,2.6057,2.6058,2.6058,0,2.5227,2.525,2.5309,2.5378,2.5427,2.5483,2.5539,2.5567,2.5624,2.5669,2.5737,2.5781,2.5867,2.5934,2.6003,2.604,2.6058,2.6063,2.6074,2.6064,2.6046,2.6057,2.5981,2.6061,2.6061,2.606,2.606,2.606,2.5257,2.53,2.5365,2.5431,2.5478,2.553,2.5575,2.562,2.5678,2.5753,2.5777,2.5847,2.5908,2.6003,2.6042,2.6097,2.6095,2.611,2.6114,2.6118,2.6118,2.6038,2.6109,2.6109,2.6109,2.6109,2.6109,0,2.5312,2.5356,2.5416,2.5494,2.5546,2.5561,2.5623,2.5665,2.5727,2.5784,2.5839,2.5917,2.5982,2.6038,2.6105,2.6138,2.6148,2.6154,2.6152,2.616,2.6115,2.6099,2.6145,2.6145,2.6145,2.6145,2.6145,2.6145,2.5346,2.5419,2.5449,2.5546,2.5589,2.566,2.5694,2.5742,2.5788,2.5874,2.5929,2.5966,2.6022,2.6093,2.6153,2.6168,2.6191,2.6195,2.6211,2.6168,2.6164,2.616,2.6145,2.62,2.62,2.6253,2.6253,2.6254]}]]